Dewpoint
62 52 44 39 23 20 19 21 21 21 20 24 26 47 48 49 51 50 61 67 71 74 77 77 77 77 77 76 76 76 75 75 75 75 76 76 76 76 76 76 76 76 75 74 74 73 73 72 71
61 53 42 34 19 18 20 22 21 23 22 25 27 53 54 55 59 65 65 70 71 75 76 76 77 77 77 76 76 75 75 75 75 76 76 76 76 76 76 76 76 76 75 74 74 73 72 71 71
59 53 41 24 20 19 20 22 22 25 26 25 24 55 56 58 63 64 69 71 72 75 76 76 77 77 76 76 76 75 75 75 75 76 76 76 76 76 76 76 76 76 74 74 74 73 72 71 71
47 44 42 23 19 21 22 24 25 23 22 25 22 39 50 57 62 67 70 71 71 73 75 77 77 76 76 76 76 75 75 75 75 76 76 76 76 76 76 76 76 75 75 74 73 72 72 71 71
45 36 31 25 19 19 20 21 20 20 22 24 25 27 53 61 67 70 70 69 69 73 75 76 76 76 76 76 76 75 75 75 75 76 76 76 76 75 75 75 75 75 73 72 72 72 72 71 70
36 33 25 24 21 18 17 17 16 15 16 21 22 37 52 65 67 69 70 68 70 73 75 76 76 76 76 76 76 75 75 75 75 75 75 75 75 75 75 75 75 74 73 72 72 72 71 72 71
32 31 28 24 22 21 19 17 12 14 15 13 18 20 44 66 67 69 69 68 73 74 75 75 75 76 76 76 75 75 75 75 75 75 75 75 75 75 75 75 75 74 74 73 73 72 72 71 71
32 31 32 28 28 27 22 21 20 17 17 18 18 20 43 50 68 69 69 69 72 73 74 74 73 73 73 75 75 75 75 75 75 75 75 75 75 75 75 74 74 74 73 73 72 72 71 71 70
25 21 25 25 24 25 24 21 20 20 19 19 21 21 22 41 67 68 68 70 71 72 73 74 73 72 72 73 74 75 75 75 75 75 75 74 74 74 74 74 74 74 73 72 72 71 70 70 70
22 21 21 23 22 19 19 16 15 15 14 18 20 21 22 25 46 67 67 69 69 70 71 73 73 72 72 72 73 73 73 73 73 73 73 73 73 73 73 73 74 74 73 72 71 71 70 70 67
21 20 21 19 19 17 15 15 14 12 12 16 18 19 22 28 28 39 66 68 69 69 70 71 72 73 73 72 71 73 71 72 72 72 73 71 71 72 71 72 72 71 72 69 70 69 69 67 66
19 20 21 20 19 15 14 14 13 13 13 15 17 20 22 26 25 26 34 61 69 68 69 70 71 72 72 72 71 70 70 71 71 71 70 70 69 69 70 71 70 69 69 66 66 67 66 66 65
20 20 20 19 18 17 16 15 15 14 17 20 18 19 19 21 24 25 29 37 68 68 68 68 69 69 71 71 71 71 71 71 70 71 69 68 67 69 70 69 69 67 66 66 65 65 64 64 63
21 19 17 17 16 18 17 16 16 17 17 15 16 18 19 20 22 23 24 32 66 67 67 67 67 67 70 70 70 70 69 69 68 69 68 67 67 68 68 68 67 67 66 65 65 65 64 64 65
21 17 16 15 15 15 15 13 14 18 17 15 15 13 16 21 22 22 24 25 44 60 66 67 66 65 68 67 67 66 67 66 66 67 66 66 67 66 68 68 67 66 65 65 64 65 66 66 67
18 16 14 14 15 15 17 12 14 15 16 16 15 14 14 16 22 23 25 26 35 56 66 66 65 64 66 64 66 66 65 64 64 66 65 65 67 66 66 68 66 66 65 66 67 66 69 67 66
18 12 12 13 13 13 13 11 14 15 15 16 15 15 14 14 17 23 25 25 30 61 66 68 68 66 64 64 66 67 65 63 63 65 65 62 66 69 66 66 66 66 68 69 69 69 67 66 65
17 16 15 14 15 16 17 17 18 17 14 15 17 17 16 17 19 21 24 25 29 60 67 68 69 68 67 69 68 68 67 66 64 64 65 62 65 69 67 66 65 69 70 69 69 67 67 65 63
17 17 16 18 17 15 15 17 25 27 21 16 18 18 19 21 22 25 27 31 32 51 68 68 68 70 69 68 69 68 67 67 66 64 65 63 66 68 66 65 70 70 69 67 67 66 63 62 62
23 20 19 18 16 23 26 28 29 28 26 22 23 22 21 21 18 18 20 27 27 41 68 69 68 70 69 69 70 70 70 69 67 65 65 64 67 67 67 69 69 68 68 67 67 66 64 61 59
22 21 19 17 22 28 29 25 24 24 29 29 28 28 24 21 19 19 18 21 23 29 66 70 69 70 69 68 67 69 71 69 67 65 65 66 67 67 70 70 69 69 68 67 66 64 62 59 60
22 23 22 20 22 20 30 21 21 24 24 25 25 28 26 22 20 19 18 19 23 24 54 68 70 70 68 68 66 66 66 67 67 66 65 66 67 67 70 70 69 69 67 66 64 63 63 60 59
25 26 24 24 25 27 29 26 22 24 23 24 26 27 27 23 21 20 18 17 19 23 32 62 70 69 68 67 65 63 61 64 68 68 65 66 66 69 70 70 68 66 66 63 62 62 61 61 59
28 26 24 24 25 22 24 27 22 23 25 25 24 24 27 29 27 25 23 20 22 25 35 57 69 69 69 68 67 65 64 67 68 67 67 67 68 70 70 69 67 65 63 63 62 61 59 57 56
27 26 24 22 20 20 22 24 24 26 27 27 26 31 38 37 37 37 38 33 25 24 31 54 67 68 69 69 69 67 66 68 67 67 67 67 69 69 67 67 65 64 63 63 61 58 57 55 54
26 27 28 22 22 21 23 22 21 28 30 29 35 39 39 37 39 41 40 39 36 26 28 59 66 67 69 69 69 69 68 68 68 68 67 68 68 68 66 65 64 63 63 61 58 55 55 53 51
27 25 25 25 23 19 18 20 22 22 23 36 37 37 37 38 39 42 40 40 40 37 30 53 65 67 67 67 69 69 68 68 68 68 68 68 68 66 65 64 63 63 60 58 56 55 53 51 50
26 28 25 26 17 17 17 18 17 20 31 35 35 35 39 39 41 42 41 42 41 37 31 46 64 65 66 68 69 68 68 68 69 68 68 68 68 66 64 63 62 60 57 55 55 53 51 50 50
26 27 29 33 31 25 22 22 23 23 30 34 34 36 39 41 41 41 42 42 42 38 32 44 60 65 67 68 66 67 68 68 68 68 69 68 67 65 63 62 60 57 55 54 51 50 49 48 46
30 35 35 30 29 33 30 24 29 29 31 36 38 39 40 42 43 43 44 45 45 40 36 40 50 66 66 66 66 67 68 68 68 68 67 67 65 64 62 60 57 56 55 51 50 49 47 44 41
Lifted_Index
8 9 9 8 6 4 2 2 2 1 1 1 -0 -2 -3 -2 -2 -2 -2 -3 -3 -4 -5 -5 -5 -5 -4 -3 -2 -2 -1 -1 -1 -1 -2 -2 -2 -2 -2 -2 -2 -2 -2 -1 -1 -1 -0 0 0
8 9 9 7 5 3 2 2 2 2 2 2 -0 -3 -4 -4 -3 -3 -3 -3 -4 -4 -5 -5 -5 -5 -4 -3 -3 -2 -1 -1 -1 -2 -2 -2 -2 -2 -2 -2 -2 -2 -2 -1 -1 -1 -0 0 0
8 8 8 7 5 3 2 3 3 2 3 2 0 -3 -5 -5 -5 -4 -5 -4 -4 -4 -5 -5 -5 -5 -4 -4 -3 -2 -2 -1 -1 -2 -3 -3 -2 -2 -2 -2 -2 -2 -2 -1 -1 -1 -0 -0 -0
9 8 7 6 5 4 4 4 3 3 3 3 1 -2 -5 -5 -5 -5 -5 -4 -4 -4 -5 -5 -5 -5 -4 -4 -3 -3 -2 -2 -2 -2 -3 -3 -2 -2 -2 -2 -2 -2 -2 -1 -1 -0 -0 -0 0
9 8 7 5 5 5 5 5 4 4 3 3 2 -0 -4 -5 -5 -4 -4 -4 -4 -4 -5 -6 -5 -5 -5 -4 -4 -3 -2 -2 -2 -2 -3 -3 -2 -2 -2 -2 -2 -2 -1 -1 -0 -0 -0 0 0
10 9 6 5 5 5 6 6 5 4 4 3 3 1 -3 -5 -5 -4 -4 -4 -4 -5 -5 -6 -5 -5 -5 -4 -4 -3 -2 -2 -2 -2 -3 -2 -2 -2 -2 -2 -2 -1 -1 -0 -0 -0 0 0 1
10 9 7 5 5 5 6 6 6 5 4 4 4 2 -2 -5 -6 -5 -4 -4 -5 -5 -5 -5 -5 -5 -5 -4 -4 -3 -3 -2 -2 -2 -3 -2 -2 -2 -2 -2 -1 -1 -0 0 0 0 1 1 1
11 9 7 6 6 6 7 7 7 7 6 6 5 3 -1 -4 -6 -6 -4 -4 -5 -5 -5 -5 -5 -4 -4 -4 -4 -3 -3 -3 -3 -3 -3 -2 -2 -2 -2 -2 -1 -1 0 1 1 1 1 2 2
11 9 7 7 8 8 8 8 8 8 8 7 6 4 1 -3 -5 -6 -5 -5 -5 -5 -5 -5 -5 -4 -4 -4 -4 -3 -3 -3 -3 -3 -2 -2 -2 -2 -2 -2 -1 -0 0 1 2 2 2 2 3
11 9 9 9 10 10 10 10 9 8 8 7 6 5 3 0 -2 -4 -5 -5 -5 -5 -5 -5 -5 -4 -4 -4 -3 -3 -3 -3 -3 -2 -2 -2 -1 -1 -1 -1 -1 -0 1 1 2 2 3 3 3
11 10 11 12 12 12 12 11 10 9 8 8 7 6 6 4 2 -0 -2 -3 -4 -5 -6 -5 -5 -4 -4 -4 -3 -3 -2 -2 -2 -2 -2 -1 -1 -1 -1 -1 -0 0 1 2 3 3 3 2 2
12 12 12 13 13 13 12 12 11 10 10 10 9 8 7 7 5 4 3 0 -3 -4 -5 -5 -5 -4 -4 -3 -3 -2 -2 -2 -2 -2 -1 -0 -0 -0 -0 -0 0 1 2 3 3 3 2 2 1
12 12 12 12 12 12 12 12 11 11 10 10 10 9 8 7 7 7 6 4 -1 -3 -4 -5 -5 -5 -4 -3 -2 -2 -1 -1 -1 -1 -1 0 0 -0 -0 0 1 2 3 3 2 2 2 1 0
12 12 12 11 11 11 11 12 11 11 10 9 9 8 7 7 7 7 7 5 2 -2 -3 -4 -5 -5 -4 -3 -2 -1 -1 -1 -1 -0 -0 0 0 -0 -0 -0 1 2 2 2 1 1 0 -0 -1
11 11 10 10 10 10 10 11 11 11 10 9 8 8 7 7 7 7 6 6 4 1 -2 -4 -5 -5 -5 -3 -1 -0 0 0 0 0 1 0 -0 -0 -1 -1 -0 1 1 1 0 -0 -1 -2 -2
10 9 8 8 8 8 9 9 10 10 9 9 9 8 8 7 7 7 6 6 5 2 -1 -4 -4 -5 -4 -3 -1 0 0 1 1 1 1 1 0 -0 -1 -1 -1 -1 -0 -1 -1 -1 -2 -2 -2
7 7 6 6 6 6 7 7 8 8 8 8 8 8 8 7 7 7 6 6 5 2 -2 -4 -4 -4 -4 -2 -1 -0 -0 -0 0 0 1 1 0 -1 -1 -2 -2 -2 -2 -2 -2 -2 -2 -2 -2
5 5 5 5 5 5 5 6 6 6 6 6 7 7 7 7 7 7 6 6 5 1 -3 -5 -5 -4 -4 -3 -2 -2 -2 -1 -1 -1 -0 0 -0 -2 -2 -2 -2 -3 -3 -3 -3 -3 -2 -1 -1
4 4 4 4 4 5 5 5 6 6 5 5 5 5 5 6 6 6 6 5 4 1 -3 -6 -6 -5 -5 -4 -3 -3 -3 -2 -2 -2 -1 -1 -1 -2 -3 -3 -3 -4 -4 -3 -3 -3 -2 -1 -0
3 3 4 4 4 5 5 5 5 5 5 4 4 4 4 4 5 6 6 5 4 2 -3 -7 -7 -6 -5 -5 -4 -3 -3 -3 -3 -3 -3 -3 -2 -3 -3 -3 -4 -4 -4 -3 -3 -2 -1 -0 1
3 3 3 4 4 4 4 3 4 4 3 3 3 2 2 2 3 4 5 5 5 2 -3 -7 -8 -7 -6 -5 -4 -4 -4 -4 -4 -4 -4 -4 -3 -3 -3 -4 -5 -5 -4 -3 -3 -2 -1 1 2
3 3 3 3 4 4 3 2 2 2 2 2 2 1 1 1 1 2 4 4 4 3 -0 -6 -9 -8 -6 -6 -5 -4 -4 -4 -4 -5 -5 -4 -4 -3 -4 -5 -5 -5 -4 -3 -3 -2 -0 1 2
3 3 3 3 3 3 3 2 2 2 2 2 1 1 0 0 0 1 2 3 3 4 2 -3 -8 -9 -7 -6 -5 -4 -4 -4 -4 -4 -5 -4 -4 -3 -4 -5 -5 -5 -4 -3 -2 -1 0 1 2
3 2 3 3 3 3 3 2 2 2 2 1 1 0 -0 -0 -0 -0 0 1 2 3 3 -1 -7 -9 -8 -6 -5 -5 -4 -4 -4 -4 -4 -4 -3 -4 -4 -5 -5 -5 -4 -3 -1 0 1 2 2
2 2 2 2 1 2 2 2 2 2 2 1 1 0 -0 -1 -1 -0 -0 0 1 2 3 -1 -7 -9 -8 -7 -6 -5 -5 -5 -4 -4 -4 -4 -4 -4 -5 -5 -5 -5 -4 -3 -0 2 2 3 3
2 2 1 1 1 2 3 3 3 2 2 1 1 0 -0 -0 -0 -0 -0 -0 0 1 1 -2 -6 -9 -9 -8 -7 -6 -6 -5 -5 -4 -4 -4 -4 -4 -5 -5 -5 -5 -4 -2 1 2 2 3 3
3 3 2 1 1 2 3 3 3 3 2 1 0 0 0 0 0 0 0 -0 0 1 1 -2 -6 -9 -9 -8 -7 -7 -6 -6 -5 -4 -4 -4 -4 -4 -5 -5 -5 -5 -4 -1 1 2 2 3 4
4 3 2 2 1 1 2 3 3 2 1 0 0 0 0 0 1 1 1 0 0 1 1 -1 -6 -9 -9 -8 -7 -7 -6 -6 -5 -5 -4 -4 -4 -4 -5 -5 -5 -4 -2 -0 1 1 2 3 4
3 3 2 2 1 1 1 2 2 2 1 1 1 1 0 0 1 1 1 1 1 1 1 -1 -4 -8 -9 -8 -7 -7 -6 -5 -5 -5 -4 -3 -3 -4 -4 -5 -5 -4 -2 -0 1 2 3 4 4
2 2 2 1 1 1 1 2 2 1 1 1 1 1 1 1 1 1 1 1 1 1 1 -0 -3 -8 -9 -8 -7 -6 -6 -5 -5 -5 -4 -3 -3 -3 -4 -5 -4 -3 -2 -0 1 2 3 4 4